SCP
1 1 1 0 0 0 0 0 0 0 0 0 0 0 0 0 0 0 1 1 1 1 1 1 1 1 1 1 0 0 0 0 0 0 0 0 0 0 0 0 0 0 0
1 1 1 1 1 0 0 0 0 0 0 0 0 0 0 0 0 0 1 1 1 1 1 1 1 1 1 0 0 0 0 0 0 0 0 0 0 0 0 0 0 0 0
1 1 1 1 1 1 1 0 0 0 0 0 0 0 0 0 0 1 1 1 1 1 1 1 1 1 1 0 0 0 0 0 0 0 0 0 0 0 0 0 0 0 0
2 2 2 1 1 1 1 0 0 0 0 0 0 0 0 1 1 1 1 1 1 1 1 1 1 1 1 1 1 0 1 1 0 0 0 0 0 0 0 0 0 0 0
2 2 2 1 1 1 1 0 1 0 0 0 1 1 1 1 1 1 1 1 1 1 1 1 1 1 1 1 1 1 1 1 1 1 1 1 0 0 0 0 0 0 0
2 2 2 1 1 1 1 1 1 1 0 0 0 1 0 0 1 1 1 1 1 1 1 1 1 1 1 1 1 1 1 1 1 1 1 1 1 0 0 0 0 0 0
3 3 2 2 1 1 1 1 1 0 0 0 1 1 0 0 0 1 1 0 0 1 1 1 1 1 1 1 1 1 1 1 1 1 1 1 1 1 0 0 0 0 0
2 3 3 2 2 1 1 1 1 0 0 0 1 1 0 0 0 0 0 0 0 1 1 1 1 1 1 1 1 1 1 1 1 1 1 1 1 1 1 1 1 0 0
2 2 2 3 3 2 1 1 1 0 0 0 1 0 0 0 0 0 0 0 0 0 1 1 1 1 1 1 1 1 1 1 1 1 1 1 1 1 1 1 1 1 1
2 2 2 3 3 3 2 1 1 1 0 1 1 0 1 1 0 0 0 0 0 0 1 1 1 1 1 1 1 1 0 1 1 1 1 1 1 1 1 1 1 1 1
1 1 1 2 3 2 2 1 1 1 1 1 1 1 1 1 0 0 0 0 0 0 1 1 1 1 1 1 1 0 0 0 0 1 1 1 1 1 1 1 1 1 1
2 1 1 1 2 2 1 1 1 1 1 1 1 1 1 1 1 0 0 0 0 1 1 1 1 1 0 0 0 0 0 0 0 0 0 0 1 1 1 1 1 1 0
2 2 2 2 2 1 1 1 1 1 1 1 1 1 1 1 1 0 0 0 0 1 1 1 1 1 0 0 0 0 0 0 0 0 0 0 0 0 0 0 0 0 0
2 2 3 2 2 1 1 1 1 1 2 2 2 2 2 1 1 1 1 1 1 1 1 1 1 1 1 1 0 0 0 0 0 0 0 0 0 0 0 0 0 0 0
1 2 2 2 2 2 1 1 1 1 2 2 2 2 2 2 1 1 1 1 1 1 1 1 1 1 1 1 0 0 0 0 0 0 0 0 0 0 0 0 0 0 0
2 2 2 2 2 2 2 2 1 1 2 2 2 2 2 2 1 1 1 1 1 1 1 1 1 1 1 1 1 1 1 0 0 0 0 0 0 0 0 0 0 0 0
2 2 2 2 2 2 2 2 1 1 2 2 2 2 2 2 2 1 1 1 1 1 1 1 1 2 2 2 1 1 1 1 0 0 0 0 0 0 0 0 0 0 0
2 2 2 2 2 2 2 2 2 2 2 2 2 2 2 1 2 1 1 1 1 1 1 1 1 2 2 2 2 1 1 1 1 0 0 0 0 0 0 0 0 0 0
2 2 2 2 2 2 1 1 1 1 2 2 2 2 2 1 2 2 1 1 1 1 1 1 1 2 2 2 2 2 1 1 1 1 0 0 0 0 0 0 0 0 0
2 2 2 2 2 1 1 1 1 1 1 1 2 2 2 2 2 2 2 2 2 2 2 1 1 1 2 2 2 2 2 1 1 1 1 0 0 0 0 0 0 0 0
2 2 2 2 2 1 1 1 1 1 1 1 2 2 2 2 2 2 2 2 2 2 2 1 1 1 1 2 3 2 2 2 2 2 2 1 1 1 0 0 0 0 0
3 3 2 2 2 1 1 1 1 1 2 2 2 2 2 1 1 1 1 1 1 1 1 1 1 1 2 2 2 2 2 1 2 2 2 1 1 1 1 1 0 0 0
3 3 2 2 1 1 0 0 0 1 2 2 2 2 1 1 1 1 1 1 1 1 1 1 1 2 2 2 2 2 1 1 1 2 2 1 1 1 1 1 0 0 0
2 2 2 2 1 1 0 0 0 1 2 2 2 2 1 1 1 1 1 2 2 2 1 1 1 1 1 2 2 1 1 1 1 2 2 1 1 1 1 1 1 0 0
2 2 2 2 1 0 0 0 0 1 1 1 1 1 1 1 1 0 1 2 2 2 1 1 0 1 1 1 1 1 1 1 1 1 2 2 1 1 1 1 1 0 0
2 2 2 1 1 1 0 0 0 1 1 1 1 1 1 0 0 0 0 1 2 2 1 1 0 0 0 0 0 1 1 1 1 1 1 2 1 1 1 1 1 1 0
Wind_Speed
2 3 2 1 2 3 3 2 1 2 1 1 1 3 2 3 4 6 6 11 11 10 10 10 9 9 8 8 8 7 7 7 7 7 7 7 7 7 7 6 6 5 5
3 2 2 1 1 2 2 1 2 2 1 1 1 2 1 3 4 5 6 7 10 10 10 10 9 9 9 8 8 8 7 7 7 7 7 7 7 7 7 7 6 5 5
4 2 2 2 1 2 2 1 2 2 2 2 2 2 1 1 4 4 5 5 6 9 10 9 9 8 9 9 9 9 8 8 7 8 8 7 7 7 7 7 6 6 5
4 2 2 2 1 2 2 1 1 2 1 2 2 2 2 2 3 4 4 5 5 6 8 10 9 9 9 9 9 9 9 8 8 8 8 8 8 8 8 7 7 7 6
4 2 2 2 2 1 1 2 2 1 1 2 3 2 2 2 3 4 4 4 5 6 5 8 10 10 10 11 10 10 9 9 9 9 9 9 9 9 8 8 8 8 7
3 2 3 2 1 1 2 2 2 1 0 1 2 3 2 2 2 2 3 4 5 6 7 7 6 7 10 10 10 10 10 10 10 9 10 10 10 10 10 9 9 9 9
3 1 2 3 1 1 2 2 2 2 2 1 0 2 2 3 3 3 2 2 4 5 6 7 5 5 5 9 9 9 10 10 10 10 10 10 10 10 10 10 10 10 10
4 4 2 3 2 2 2 1 1 1 2 2 1 1 1 1 2 4 3 3 3 3 4 7 5 5 4 4 6 9 9 9 9 9 9 9 9 9 9 10 10 11 11
4 2 3 1 2 2 3 2 1 2 1 1 1 0 1 1 2 1 2 3 2 2 3 4 5 5 5 4 5 7 9 8 8 8 8 8 8 8 9 9 10 11 11
4 4 3 2 1 1 4 3 3 1 1 1 2 1 1 1 1 1 1 3 4 3 2 3 4 5 4 4 5 8 9 8 8 8 8 8 8 8 8 9 10 11 11
4 5 4 3 2 1 3 1 3 1 1 2 1 2 2 1 2 2 2 3 2 3 3 3 3 4 5 5 5 8 10 9 7 6 6 7 7 8 8 9 10 10 10
4 5 5 4 3 2 3 2 2 2 1 2 2 2 0 1 2 2 2 3 3 3 4 3 3 3 4 5 7 12 11 10 8 7 7 7 7 7 8 8 9 9 9
5 6 6 5 3 3 3 2 2 1 2 1 2 3 2 2 1 0 0 1 2 2 3 3 4 4 5 4 6 13 11 11 10 9 8 8 7 7 8 8 8 8 9
5 7 6 6 4 4 4 3 3 3 2 1 3 2 3 3 2 1 1 1 1 2 3 4 4 5 4 5 8 13 8 13 12 11 10 9 8 8 8 8 8 8 8
5 8 7 6 5 5 3 4 3 2 3 3 3 3 2 3 2 2 2 1 1 2 2 3 2 4 4 4 10 8 6 13 14 13 12 11 11 10 10 9 9 9 9
4 6 6 6 5 5 4 4 3 3 3 3 3 2 2 3 2 2 1 2 2 1 2 1 2 3 4 4 10 7 6 12 16 15 14 14 13 13 12 12 11 11 11
4 5 5 5 5 5 5 4 5 4 5 4 4 4 4 3 3 3 2 2 2 2 2 3 2 1 3 2 5 4 4 5 8 16 17 16 16 15 14 14 13 13 13
4 5 5 4 5 5 5 5 6 5 4 5 5 4 4 4 4 3 3 3 2 2 1 3 2 1 2 4 4 5 5 6 6 13 19 18 17 16 16 15 15 14 14
4 4 4 4 4 3 3 4 4 4 4 4 5 4 4 4 4 3 3 3 3 3 2 2 3 3 2 3 3 5 6 5 7 8 13 17 17 16 16 16 16 15 15
4 3 3 3 3 2 1 2 3 4 4 4 3 3 3 3 3 3 3 3 3 3 3 3 3 3 3 3 3 3 4 4 5 7 5 8 13 17 17 17 17 16 16
4 4 3 2 1 1 2 2 2 4 3 3 2 2 2 1 1 1 2 2 2 3 3 3 4 3 3 2 2 2 4 3 4 4 3 3 4 5 8 13 16 18 17
3 3 4 3 4 3 4 4 2 1 1 1 1 1 1 2 1 0 1 2 2 3 3 3 4 4 4 3 2 3 2 3 3 2 2 4 3 4 5 5 10 15 17
5 5 5 6 6 6 7 7 6 2 3 3 3 2 2 4 5 3 2 3 3 4 4 3 4 4 4 3 4 4 3 4 4 4 4 6 5 5 5 6 8 11 13
7 7 8 8 7 8 9 8 6 3 3 4 4 4 4 4 6 6 4 3 2 2 2 2 2 3 4 3 3 4 5 5 6 5 5 6 6 6 7 5 8 8 10
8 8 8 8 8 9 12 11 7 4 4 5 6 7 6 5 8 9 5 4 4 4 4 3 3 4 5 5 4 3 4 4 5 5 3 4 4 5 5 5 6 9 9
8 8 9 9 9 9 12 13 9 4 4 4 5 6 9 7 8 9 6 5 4 5 6 6 4 5 5 5 5 3 3 4 4 4 3 3 4 4 4 3 3 4 5
Wind_Direction
138 130 126 144 171 143 161 180 161 120 105 153 186 147 122 100 111 118 133 149 153 156 159 161 163 162 162 166 166 167 171 170 167 163 163 164 162 161 159 156 152 150 147
124 129 129 133 109 114 106 146 140 132 174 150 101 102 130 136 119 122 140 154 161 163 167 170 173 174 174 177 179 178 180 180 177 176 175 175 175 176 177 175 173 171 167
130 139 137 170 134 123 125 159 136 150 185 170 149 139 126 101 125 136 146 157 164 172 174 177 181 183 185 188 192 192 189 189 188 187 187 185 186 188 187 187 187 186 183
138 159 154 136 146 150 151 143 185 173 157 144 137 148 131 134 140 158 166 169 163 169 180 184 184 187 192 199 202 202 198 197 198 197 196 196 196 196 196 196 198 197 196
148 178 109 107 199 168 160 181 131 116 136 146 151 154 161 159 162 184 166 169 163 161 167 183 191 193 200 205 208 207 202 201 202 205 207 207 206 204 204 204 206 206 205
158 171 134 143 240 145 102 71 86 73 52 209 208 154 165 162 182 167 181 178 171 174 172 172 182 201 209 210 210 210 209 207 207 211 214 215 215 212 210 210 211 213 213
144 218 117 147 251 100 112 139 134 160 223 210 167 157 181 189 174 164 202 177 176 176 165 169 181 183 193 207 209 212 215 214 213 215 219 220 221 219 216 216 217 218 218
158 178 130 176 139 118 113 102 124 212 218 174 169 172 184 177 211 184 169 178 176 169 175 180 175 179 186 175 198 207 210 211 216 218 221 223 224 222 222 222 221 221 222
170 133 139 145 137 174 149 187 202 237 250 176 188 224 140 174 180 159 186 146 150 165 186 169 178 181 181 168 171 195 200 206 214 218 219 222 224 224 225 228 228 227 226
167 149 154 132 146 109 138 201 176 233 260 255 184 161 171 110 144 149 206 163 179 180 189 193 180 171 172 159 162 172 189 198 207 216 218 218 220 225 225 227 232 232 230
174 160 157 150 174 192 134 133 121 249 262 273 293 200 184 177 241 177 185 176 189 178 179 196 174 175 176 164 164 174 183 188 192 201 208 213 218 221 225 229 235 236 234
181 169 161 156 186 173 129 144 144 200 307 342 344 324 195 198 229 217 182 197 193 186 180 179 184 182 183 174 183 170 178 182 187 194 201 209 216 222 227 230 234 238 239
178 173 168 164 187 153 150 167 186 230 202 271 312 310 323 308 299 321 253 229 186 176 177 187 194 188 199 157 157 168 178 181 188 196 203 209 216 221 225 228 233 239 244
176 161 161 169 186 174 180 173 201 202 181 205 255 284 322 311 328 308 300 325 273 213 193 207 188 186 193 159 171 177 181 188 194 201 207 213 217 222 226 228 231 236 241
163 157 164 171 184 184 194 169 231 214 156 198 240 218 239 278 270 292 312 314 305 295 255 218 184 186 177 154 161 187 183 195 201 206 212 217 221 225 229 231 234 237 240
157 153 164 173 182 181 192 197 234 207 192 214 243 258 229 280 277 246 260 283 286 286 295 286 218 185 169 177 174 197 203 194 203 210 215 219 222 225 228 231 234 237 239
160 167 173 177 186 188 189 198 237 211 200 219 233 227 219 258 302 315 279 255 255 253 267 285 273 158 152 173 159 218 224 196 206 214 218 220 222 225 227 230 232 235 237
179 181 183 185 197 198 193 199 226 230 211 219 228 233 224 229 222 262 300 296 284 278 271 290 298 297 208 200 195 215 239 241 229 218 216 219 222 224 227 230 232 234 235
189 189 184 186 196 207 203 210 221 243 238 231 228 225 227 239 237 236 244 275 292 284 239 255 271 267 248 225 214 225 244 257 266 258 219 219 223 226 228 231 233 234 236
176 175 165 162 170 195 232 239 231 238 246 249 244 240 236 231 231 240 251 254 271 287 286 264 266 269 260 243 217 220 248 247 253 264 253 222 222 225 230 232 234 235 236
173 161 150 143 121 87 4 314 264 245 238 247 259 261 266 266 243 242 266 283 283 280 280 276 271 270 271 276 252 244 253 262 257 250 262 254 231 230 232 238 240 240 237
135 122 116 101 77 47 14 23 12 332 9 2 334 337 317 6 352 207 274 297 299 286 292 295 295 296 301 313 319 304 300 300 287 298 317 293 282 259 245 237 235 233 233
110 97 87 82 76 44 28 34 36 26 41 39 27 20 1 28 17 357 322 283 264 250 243 267 286 297 307 326 327 317 309 297 278 290 301 281 276 276 272 270 259 242 235
87 82 78 75 69 41 30 32 28 49 57 50 46 44 54 36 12 359 339 334 332 333 289 254 266 285 301 316 306 294 288 284 272 266 258 264 268 267 275 281 285 268 247
84 82 80 76 69 46 32 30 26 57 66 62 58 47 46 44 20 13 6 1 357 349 354 355 313 289 286 286 282 294 289 286 284 284 280 273 280 285 281 278 280 278 266
93 89 81 74 71 58 38 35 27 47 60 65 74 67 54 47 35 24 15 6 360 352 343 332 315 291 273 266 248 235 270 284 290 291 310 325 314 321 302 289 304 314 298